[[{"header":{"parameterUnit":"m.s-1","parameterCategory":1,"la1":30.2991,"la2":30.254,"lo1":-89.0895,"lo2":-89.0444,"dy":0.0017,"dx":0.0017,"nx":28,"ny":28,"refTime":"2025-04-19T21:00:00:Z","depth":0,"parameterNumber":2,"parameterNumberName":"U-component_of_WINDS"},"data":[0,0,0,0,0,0,0,0,0,0,0,0,0,0,0,0,0,0,0,0,0,0,0,0,0,0,0,0,0,0,0,0,0,0,0,0,0,0,0,0,0,0,0,0,0,0,0,0,0,0,0,0,0,0,0,0,0,0,-4.6124,-4.6125,0,-4.6271,-4.6272,-4.6274,-4.6282,-4.628,-4.6279,-4.6277,-4.6426,-4.6431,-4.6437,0,0,0,0,0,0,0,0,0,0,0,0,0,-4.5849,-4.5854,-4.6123,-4.6125,-4.6127,-4.627,-4.6272,-4.6274,-4.6282,-4.628,-4.6278,-4.6276,-4.6424,-4.643,-4.6437,0,0,0,0,0,0,0,0,0,0,0,0,0,-4.598,-4.5856,-4.6123,-4.6148,-4.6152,-4.627,-4.6272,-4.6275,-4.6283,-4.628,-4.6278,-4.6275,-4.6422,-4.643,-4.6438,-4.654,0,0,-4.6463,-4.6467,0,0,0,0,0,0,0,0,-4.5972,-4.599,-4.6143,-4.6147,-4.6151,-4.6255,-4.623,-4.6364,-4.6283,-4.6233,-4.6277,-4.6274,-4.6371,-4.6383,-4.6416,-4.6547,-4.6553,-4.6464,-4.6469,-4.6473,-4.6475,0,0,0,0,0,0,0,-4.5963,-4.5983,-4.6182,-4.6145,-4.615,-4.6152,-4.6168,-4.6256,-4.6314,-4.6237,-4.6238,-4.6256,-4.6373,-4.6408,-4.642,-4.6555,-4.6464,-4.6471,-4.6476,-4.648,-4.6777,-4.678,0,0,0,0,0,0,-4.5949,-4.5976,-4.6177,-4.6186,-4.6054,-4.6159,-4.6177,-4.6225,-4.6314,-4.6325,-4.6258,-4.6255,-4.6395,-4.641,-4.6425,-4.655,-4.6473,-4.648,-4.6485,-4.6774,-4.6778,-4.6781,0,0,0,0,0,0,-4.5943,-4.5967,-4.6171,-4.6081,-4.6107,-4.6167,-4.622,-4.6229,-4.6264,-4.6329,-4.6339,-4.6283,-4.6394,-4.6414,-4.6512,-4.6555,-4.6484,-4.6492,-4.6771,-4.6776,-4.678,-4.68,0,0,0,0,0,0,-4.5936,-4.5965,-4.6004,-4.6082,-4.6112,-4.6255,-4.6223,-4.6233,-4.6279,-4.6277,-4.6356,-4.6366,-4.6394,-4.6499,-4.652,-4.6565,-4.6498,-4.6767,-4.6773,-4.6778,-4.6795,-4.6804,-4.6812,0,0,0,0,0,-4.5926,-4.6004,-4.6006,-4.603,-4.6162,-4.6257,-4.6274,-4.6305,-4.6282,-4.6322,-4.6364,-4.6364,-4.6548,-4.6509,-4.6532,-4.6581,-4.6765,-4.6771,-4.6778,-4.6792,-4.6802,-4.6812,0,0,0,0,0,0,-4.5928,-4.6014,-4.6018,-4.6123,-4.6183,-4.6259,-4.6309,-4.6316,-4.6382,-4.6378,-4.6413,-4.6431,-4.6527,-4.6565,-4.652,-4.6685,-4.6654,-4.6665,-4.6656,-4.6667,-4.6675,-4.6663,-4.6505,0,0,0,0,0,-4.5941,-4.6011,-4.6083,-4.6169,-4.6199,-4.6249,-4.6292,-4.631,-4.6373,-4.6398,-4.6447,-4.6508,-4.658,-4.6626,-4.6695,-4.6802,-4.6819,-4.6847,-4.6855,-4.6862,-4.687,-4.6929,-4.6942,-4.6803,-4.6803,-4.6803,0,0,-4.5968,-4.6024,-4.6066,-4.6171,-4.6219,-4.6291,-4.627,-4.6347,-4.64,-4.641,-4.6505,-4.6544,-4.6614,-4.6716,-4.6764,-4.675,-4.6913,-4.687,-4.6875,-4.688,-4.6937,-4.695,-4.6962,-4.6807,-4.6806,-4.6806,0,0,-4.6054,-4.6104,-4.618,-4.623,-4.6304,-4.6337,-4.6356,-4.6432,-4.6457,-4.6554,-4.6563,-4.6627,-4.675,-4.68,-4.6841,-4.6948,-4.695,-4.697,-4.7012,-4.7068,-4.7079,-4.7089,-4.7126,-4.7139,-4.6979,-4.6979,-4.6979,0,-4.6077,-4.6186,-4.6219,-4.6296,-4.6342,-4.6356,-4.6434,-4.648,-4.6573,-4.6604,-4.6588,-4.6743,-4.6791,-4.6905,-4.6932,-4.6965,-4.6987,-4.6959,-4.7075,-4.7086,-4.7095,-4.713,-4.7144,-4.6981,-4.6981,-4.698,-4.698,0,-4.6211,-4.6286,-4.634,-4.6429,-4.6482,-4.6559,-4.6604,-4.6653,-4.6668,-4.6703,-4.6801,-4.6861,-4.6942,-4.6971,-4.6986,-4.7088,-4.7077,-4.7068,-4.7037,-4.711,-4.7143,-4.7157,-4.6983,-4.6983,-4.6982,-4.6982,0,0,-4.6299,-4.6408,-4.6427,-4.6468,-4.6552,-4.661,-4.6689,-4.6769,-4.681,-4.6875,-4.694,-4.7045,-4.7038,-4.7085,-4.7106,-4.7156,-4.7236,-4.7141,-4.7143,-4.7155,-4.735,-4.7355,-4.737,-4.7239,-4.7242,-4.7244,-4.7344,0,-4.6392,-4.6531,-4.6564,-4.6683,-4.6753,-4.6768,-4.6837,-4.6895,-4.6931,-4.6995,-4.7035,-4.7108,-4.7093,-4.7122,-4.7172,-4.7215,-4.7275,-4.7209,-4.7299,-4.7302,-4.7278,-4.7388,-4.7393,-4.7484,-4.7357,-4.736,-4.7361,0,-4.6518,-4.6586,-4.6712,-4.6787,-4.6818,-4.6878,-4.6955,-4.7017,-4.7084,-4.7107,-4.7161,-4.7177,-4.7259,-4.7227,-4.734,-4.7294,-4.7334,-4.7361,-4.7365,-4.7372,-4.7334,-4.7396,-4.7514,-4.7526,-4.7383,-4.7381,-4.738,0,-4.6567,-4.669,-4.6781,-4.6817,-4.6907,-4.6949,-4.6989,-4.7054,-4.7101,-4.7169,-4.7199,-4.7276,-4.7317,-4.7376,-4.7413,-4.7386,-4.7522,-4.7493,-4.7542,-4.7541,-4.7567,-4.7565,-4.7691,-4.7598,-4.7597,-4.7597,-4.7597,0,-4.6666,-4.6742,-4.6805,-4.686,-4.6946,-4.6985,-4.7069,-4.7109,-4.7167,-4.7231,-4.725,-4.7309,-4.7356,-4.7422,-4.7452,-4.754,-4.7559,-4.7579,-4.7585,-4.7576,-4.7573,-4.76,-4.7594,-4.7601,-4.76,-4.7599,-4.7599,0,-4.6734,-4.6779,-4.6879,-4.6958,-4.698,-4.7039,-4.7106,-4.7161,-4.7198,-4.7279,-4.73,-4.7358,-4.7437,-4.7481,-4.758,-4.76,-4.7698,-4.7702,-4.7675,-4.7677,-4.7723,-4.7717,-4.7868,-4.789,-4.7784,-4.7785,-4.7786,0,-4.6793,-4.6851,-4.6937,-4.6981,-4.7022,-4.7093,-4.7141,-4.7182,-4.7231,-4.7313,-4.7358,-4.7438,-4.7504,-4.7629,-4.768,-4.7756,-4.7761,-4.7809,-4.7772,-4.7761,-4.776,-4.7755,-4.776,-4.7814,-4.7815,-4.7816,-4.7817,0,-4.6892,-4.6912,-4.698,-4.7057,-4.7114,-4.7176,-4.7238,-4.7273,-4.7325,-4.7379,-4.746,-4.7511,-4.7613,-4.7692,-4.7773,-4.7813,-4.7823,-4.7829,-4.7844,-4.7833,-4.7813,-4.7823,-4.7689,-4.7824,-4.7823,-4.7823,-4.7822,-4.7822,-4.6956,-4.7008,-4.7077,-4.7153,-4.7204,-4.7262,-4.7317,-4.7362,-4.743,-4.7516,-4.7537,-4.7622,-4.7689,-4.7798,-4.7841,-4.7908,-4.7899,-4.7921,-4.7927,-4.7931,-4.7931,-4.7805,-4.7924,-4.7923,-4.7923,-4.7923,-4.7923,0,-4.7054,-4.7099,-4.7169,-4.7255,-4.7315,-4.7321,-4.739,-4.7439,-4.7514,-4.7576,-4.7641,-4.7735,-4.7812,-4.787,-4.7949,-4.7991,-4.7998,-4.8011,-4.8006,-4.8015,-4.7936,-4.7914,-4.8004,-4.8004,-4.8004,-4.8004,-4.8004,-4.8004,-4.7112,-4.7201,-4.723,-4.7345,-4.739,-4.7474,-4.7512,-4.7566,-4.7616,-4.7719,-4.7783,-4.7821,-4.7882,-4.7966,-4.8037,-4.8052,-4.8079,-4.8091,-4.8106,-4.803,-4.8021,-4.8013,-4.7992,-4.8097,-4.8097,-4.818,-4.8181,-4.8181]},{"header":{"parameterUnit":"m.s-1","parameterCategory":1,"la1":30.2991,"la2":30.254,"lo1":-89.0895,"lo2":-89.0444,"dy":0.0017,"dx":0.0017,"nx":28,"ny":28,"refTime":"2025-04-19T21:00:00:Z","depth":0,"parameterNumber":3,"parameterNumberName":"V-component_of_WINDS"},"data":[0,0,0,0,0,0,0,0,0,0,0,0,0,0,0,0,0,0,0,0,0,0,0,0,0,0,0,0,0,0,0,0,0,0,0,0,0,0,0,0,0,0,0,0,0,0,0,0,0,0,0,0,0,0,0,0,0,0,3.8376,3.8377,0,3.8459,3.846,3.8461,3.8456,3.8455,3.8454,3.8453,3.8534,3.8538,3.8541,0,0,0,0,0,0,0,0,0,0,0,0,0,3.8212,3.8215,3.8376,3.8377,3.8378,3.8459,3.846,3.8461,3.8456,3.8455,3.8454,3.8452,3.8533,3.8537,3.8541,0,0,0,0,0,0,0,0,0,0,0,0,0,3.8288,3.8216,3.8376,3.8385,3.8387,3.8458,3.846,3.8461,3.8457,3.8455,3.8453,3.8452,3.8532,3.8537,3.8542,3.8608,0,0,3.8557,3.8559,0,0,0,0,0,0,0,0,3.8283,3.8294,3.8383,3.8385,3.8387,3.8445,3.8432,3.851,3.8457,3.843,3.8453,3.8451,3.8506,3.8513,3.8532,3.8611,3.8615,3.8557,3.856,3.8562,3.8564,0,0,0,0,0,0,0,3.8278,3.829,3.8408,3.8384,3.8387,3.8385,3.8394,3.8447,3.8477,3.8432,3.8432,3.8442,3.8507,3.8528,3.8534,3.8616,3.8557,3.8561,3.8564,3.8566,3.8756,3.8758,0,0,0,0,0,0,3.8271,3.8286,3.8406,3.8411,3.833,3.839,3.84,3.8428,3.8476,3.8482,3.8444,3.8442,3.852,3.8529,3.8537,3.8619,3.8562,3.8567,3.857,3.8754,3.8756,3.8759,0,0,0,0,0,0,3.8268,3.8282,3.8403,3.8349,3.8364,3.8394,3.8427,3.8431,3.8452,3.8485,3.849,3.846,3.8519,3.853,3.8591,3.8622,3.8569,3.8574,3.8751,3.8755,3.8758,3.8783,0,0,0,0,0,0,3.8263,3.8281,3.8306,3.8349,3.8367,3.8456,3.8429,3.8434,3.8461,3.8459,3.8501,3.8507,3.8519,3.8584,3.8596,3.8628,3.8577,3.8749,3.8753,3.8757,3.878,3.8787,3.8793,0,0,0,0,0,3.8257,3.8309,3.8308,3.8322,3.8399,3.8457,3.8467,3.8481,3.8463,3.8489,3.8511,3.8505,3.8617,3.859,3.8604,3.8638,3.8747,3.8752,3.8756,3.8777,3.8785,3.8793,0,0,0,0,0,0,3.8267,3.8315,3.8314,3.8381,3.8415,3.8456,3.849,3.8489,3.8528,3.8525,3.8539,3.8549,3.861,3.863,3.8599,3.8705,3.8679,3.8687,3.869,3.8699,3.8705,3.87,3.8581,0,0,0,0,0,3.8277,3.8321,3.836,3.8415,3.8433,3.8458,3.8484,3.8492,3.8528,3.8542,3.8568,3.8602,3.8645,3.8673,3.8714,3.8782,3.8792,3.8812,3.8819,3.8824,3.8831,3.8871,3.8881,3.8774,3.8774,3.8774,0,0,3.8298,3.833,3.8356,3.8418,3.8446,3.8491,3.8471,3.8518,3.8552,3.8549,3.8609,3.8629,3.8668,3.8734,3.8764,3.8752,3.8863,3.883,3.8834,3.8838,3.8877,3.8887,3.8896,3.8777,3.8777,3.8776,0,0,3.836,3.8388,3.8439,3.8467,3.851,3.8527,3.8539,3.8581,3.8595,3.8656,3.8655,3.8695,3.8768,3.8797,3.8821,3.8896,3.8893,3.8909,3.8944,3.8982,3.8991,3.8998,3.9027,3.9037,3.8915,3.8915,3.8915,0,3.8381,3.845,3.8464,3.8514,3.8542,3.8542,3.8594,3.8621,3.8674,3.8693,3.8679,3.8773,3.8799,3.8873,3.8892,3.891,3.8925,3.8904,3.8988,3.8996,3.9003,3.9031,3.9041,3.8917,3.8917,3.8917,3.8917,0,3.8474,3.8522,3.8557,3.8612,3.8643,3.8693,3.8715,3.8746,3.8751,3.877,3.8832,3.8864,3.8913,3.893,3.8935,3.9005,3.8997,3.8985,3.896,3.9015,3.9041,3.9052,3.892,3.8919,3.8919,3.8918,0,0,3.8544,3.8607,3.862,3.8646,3.8694,3.8731,3.8781,3.8831,3.8857,3.8894,3.8937,3.9,3.8991,3.9019,3.9027,3.906,3.9121,3.9045,3.9046,3.906,3.9202,3.9212,3.9223,3.9119,3.9121,3.9122,3.9199,0,3.8613,3.8704,3.8719,3.8799,3.8844,3.8846,3.889,3.8925,3.8944,3.8984,3.9004,3.905,3.9033,3.905,3.9084,3.9106,3.915,3.9101,3.916,3.9162,3.9151,3.9237,3.9246,3.9318,3.921,3.9211,3.9212,0,3.8705,3.8747,3.8831,3.8876,3.8895,3.8935,3.8982,3.9021,3.906,3.9072,3.9104,3.9108,3.9161,3.9133,3.9207,3.9173,3.9198,3.9213,3.9216,3.9223,3.9191,3.9247,3.934,3.9352,3.9228,3.9227,3.9226,0,3.875,3.8827,3.8889,3.891,3.8963,3.8991,3.9014,3.9052,3.9081,3.9122,3.9141,3.9187,3.9213,3.9248,3.9265,3.9243,3.9338,3.9311,3.935,3.935,3.9371,3.9369,3.9471,3.9384,3.9384,3.9384,3.9384,0,3.8826,3.8878,3.891,3.8948,3.9007,3.9024,3.9082,3.9104,3.9138,3.918,3.9184,3.9223,3.9243,3.9285,3.9299,3.9359,3.9369,3.938,3.9384,3.9381,3.938,3.9398,3.9395,3.9387,3.9386,3.9386,3.9385,0,3.8886,3.891,3.8977,3.9023,3.9035,3.9077,3.9115,3.9152,3.9171,3.9225,3.9238,3.9268,3.9319,3.9339,3.94,3.9409,3.9479,3.9477,3.9466,3.9468,3.9506,3.9503,3.9624,3.9641,3.9542,3.9543,3.9543,0,3.8934,3.8975,3.9025,3.9055,3.9079,3.9126,3.9157,3.9175,3.9207,3.9256,3.9287,3.9338,3.938,3.946,3.9487,3.9534,3.9535,3.9574,3.9542,3.9539,3.9538,3.9536,3.9541,3.958,3.9581,3.9582,3.9582,0,3.9017,3.9027,3.9072,3.9121,3.9158,3.9198,3.9236,3.926,3.9284,3.932,3.9372,3.9405,3.9469,3.9519,3.9568,3.9591,3.9592,3.9592,3.9604,3.9603,3.9596,3.9602,3.9484,3.959,3.9589,3.9588,3.9588,3.9588,3.9074,3.9111,3.9153,3.9203,3.9235,3.9271,3.9309,3.9334,3.9378,3.9433,3.9441,3.9497,3.9537,3.9603,3.9628,3.9673,3.9663,3.9679,3.9684,3.9688,3.9692,3.9588,3.9681,3.9681,3.9681,3.9681,3.9681,0,3.9159,3.9187,3.9233,3.9288,3.9327,3.9325,3.9368,3.9401,3.9451,3.9489,3.9531,3.9592,3.9641,3.9673,3.9723,3.9753,3.9754,3.9765,3.9764,3.977,3.9697,3.9683,3.9763,3.9763,3.9763,3.9763,3.9763,3.9763,3.9208,3.9272,3.9287,3.9366,3.9393,3.945,3.9475,3.9509,3.9539,3.9608,3.965,3.9671,3.9706,3.9759,3.9805,3.9813,3.9832,3.9844,3.9851,3.9783,3.9774,3.9766,3.9753,3.9847,3.9848,3.9921,3.9922,3.9922]}]]